Rugby, ND

9:21 PM CDT on September 28, 2016 (GMT -0500)
Rugby Municipal

Weather History for KRUG - February, 2014

Change the Weather History Date:

Thursday, February 6, 2014

  Actual Average Record
Temperature  
Mean Temperature -1 °F -  
Max Temperature 5 °F 21 °F 52 °F (1991)
Min Temperature -7 °F 0 °F -24 °F (1959)
Degree Days  
Heating Degree Days 66    
Moisture  
Dew Point -6 °F    
Average Humidity 78    
Maximum Humidity 92    
Minimum Humidity 66    
Precipitation  
Precipitation 0.00 in - - ()
Sea Level Pressure  
Sea Level Pressure 30.17 in    
Wind  
Wind Speed 19 mph (West)    
Max Wind Speed 30 mph    
Max Gust Speed 36 mph    
Visibility 7 miles    
Events Rain , Snow    
Averages and records for this station are not official NWS values.
T = Trace of Precipitation, MM = Missing Value Source: NWS Daily Summary

Daily Weather History Graph

Daily Weather History Graph

Search for Another Location

Airport or City:

Trip Planner

Search our weather history database for the weather conditions in past years. The results will help you decide how hot, cold, wet, or windy it might be!

Date:

Astronomy

Feb. 06, 2014 Rise Set
Actual Time 8:01 AM CST 5:47 PM CST
Civil Twilight 7:28 AM CST 6:20 PM CST
Nautical Twilight 6:51 AM CST 6:57 PM CST
Astronomical Twilight 6:15 AM CST 7:34 PM CST
Moon 11:18 AM CST (2/6) 1:19 AM CST (2/6)
Length of Visible Light 10h 51m
Length of Day
9h 45m
Waxing Crescent, 49% of the Moon is Illuminated
Feb 6
Waxing Crescent
Feb 6
First Quarter
Feb 14
Full
Feb 22
Last Quarter
Mar 1
New

Hourly Weather History & Observations

Time (CST) Temp. Windchill Dew Point Humidity Pressure Visibility Wind Dir Wind Speed Gust Speed Precip Events Conditions
12:15 AM -5.8 °F -28.8 °F - N/A% 30.40 in 10.0 mi WNW 18.4 mph - N/A   Partly Cloudy
12:35 AM -7.6 °F -29.1 °F -13.0 °F 77% 30.39 in 10.0 mi West 15.0 mph - N/A   Partly Cloudy
12:55 AM -7.6 °F -29.1 °F - N/A% 30.37 in 10.0 mi West 15.0 mph - N/A   Partly Cloudy
1:15 AM -7.6 °F -28.3 °F -11.2 °F 84% 30.36 in 10.0 mi West 13.8 mph - N/A   Partly Cloudy
1:35 AM -7.6 °F -28.3 °F -11.2 °F 84% 30.36 in 10.0 mi West 13.8 mph - N/A   Partly Cloudy
1:55 AM -7.6 °F -31.1 °F -11.2 °F 84% 30.35 in 10.0 mi WNW 18.4 mph - N/A   Clear
2:15 AM -7.6 °F -29.8 °F -13.0 °F 77% 30.34 in 10.0 mi WNW 16.1 mph - N/A   Clear
2:35 AM -7.6 °F -30.5 °F -11.2 °F 84% 30.34 in 10.0 mi West 17.3 mph - N/A   Mostly Cloudy
2:55 AM -5.8 °F -28.8 °F -11.2 °F 77% 30.33 in 10.0 mi WNW 18.4 mph - N/A   Overcast
3:15 AM -4.0 °F -28.1 °F -9.4 °F 78% 30.31 in 10.0 mi WNW 21.9 mph - N/A   Overcast
3:35 AM -2.2 °F -25.2 °F -9.4 °F 71% 30.31 in 10.0 mi WNW 20.7 mph - N/A   Overcast
3:55 AM -2.2 °F -24.1 °F -7.6 °F 78% 30.30 in 10.0 mi WNW 18.4 mph - N/A   Overcast
4:15 AM -2.2 °F -25.2 °F -7.6 °F 78% 30.29 in 10.0 mi WNW 20.7 mph 24.2 mph N/A   Overcast
4:35 AM -0.4 °F -22.3 °F -7.6 °F 72% 30.29 in 10.0 mi WNW 19.6 mph - N/A   Mostly Cloudy
4:55 AM -0.4 °F -23.3 °F -7.6 °F 72% 30.28 in 10.0 mi WNW 21.9 mph - N/A   Overcast
5:15 AM -0.4 °F -22.3 °F -5.8 °F 78% 30.28 in 10.0 mi WNW 19.6 mph - N/A   Overcast
5:35 AM -0.4 °F -22.8 °F -5.8 °F 78% 30.28 in 10.0 mi WNW 20.7 mph 25.3 mph N/A   Mostly Cloudy
5:55 AM -0.4 °F -21.2 °F -5.8 °F 78% 30.29 in 10.0 mi WNW 17.3 mph - N/A   Overcast
6:15 AM -0.4 °F -22.3 °F -4.0 °F 85% 30.28 in 10.0 mi WNW 19.6 mph 25.3 mph N/A   Overcast
6:35 AM -0.4 °F -21.2 °F -4.0 °F 85% 30.27 in 4.0 mi WNW 17.3 mph - N/A Snow Light Snow
6:55 AM -0.4 °F -21.2 °F -4.0 °F 85% 30.27 in 7.0 mi WNW 17.3 mph - N/A Snow Light Snow
7:15 AM -0.4 °F -22.8 °F -4.0 °F 85% 30.26 in 5.0 mi WNW 20.7 mph - N/A   Haze
7:35 AM -0.4 °F -21.7 °F -4.0 °F 85% 30.26 in 10.0 mi WNW 18.4 mph - N/A   Overcast
7:55 AM -0.4 °F -21.7 °F -4.0 °F 85% 30.25 in 6.0 mi WNW 18.4 mph - N/A Snow Light Snow
8:15 AM -0.4 °F -22.3 °F -4.0 °F 85% 30.25 in 4.0 mi WNW 19.6 mph - N/A Snow Light Snow
8:35 AM -0.4 °F -21.7 °F -4.0 °F 85% 30.25 in 5.0 mi WNW 18.4 mph - N/A Snow Light Snow
8:55 AM -0.4 °F -21.7 °F -4.0 °F 85% 30.25 in 4.0 mi WNW 18.4 mph - N/A Snow Light Snow
9:15 AM -0.4 °F -22.3 °F -4.0 °F 85% 30.25 in 2.5 mi WNW 19.6 mph - N/A Snow Light Snow
9:35 AM -0.4 °F -23.8 °F -2.2 °F 92% 30.24 in 1.2 mi WNW 23.0 mph - N/A Snow Light Snow
9:55 AM 1.4 °F -21.0 °F -2.2 °F 85% 30.24 in 1.0 mi WNW 21.9 mph - N/A Snow Light Snow
10:15 AM 1.4 °F -21.0 °F -2.2 °F 85% 30.23 in 0.5 mi WNW 21.9 mph - N/A Snow Snow
10:35 AM 1.4 °F -20.5 °F -2.2 °F 85% 30.23 in 0.8 mi WNW 20.7 mph 26.5 mph N/A   Overcast
10:55 AM 1.4 °F -21.4 °F -2.2 °F 85% 30.22 in 1.8 mi WNW 23.0 mph - N/A   Overcast
11:15 AM 1.4 °F -22.7 °F -2.2 °F 85% 30.22 in 0.8 mi WNW 26.5 mph - N/A   Overcast
11:35 AM 1.4 °F -22.7 °F -2.2 °F 85% 30.21 in 1.0 mi WNW 26.5 mph 33.4 mph N/A Snow Light Snow
11:55 AM 3.2 °F -19.5 °F -2.2 °F 78% 30.20 in 1.0 mi WNW 24.2 mph 31.1 mph N/A   Haze
12:15 PM 3.2 °F -19.9 °F -2.2 °F 78% 30.19 in 3.0 mi WNW 25.3 mph 28.8 mph N/A   Haze
12:35 PM 3.2 °F -21.1 °F -2.2 °F 78% 30.18 in 0.8 mi WNW 28.8 mph 32.2 mph N/A Snow Light Snow
12:55 PM 1.4 °F -22.7 °F -2.2 °F 85% 30.17 in 1.0 mi West 26.5 mph 33.4 mph N/A Snow Light Snow
1:15 PM 3.2 °F -19.9 °F -0.4 °F 85% 30.16 in 0.5 mi WNW 25.3 mph - N/A Rain Light Freezing Rain
1:35 PM 3.2 °F -19.0 °F -2.2 °F 78% 30.15 in 1.5 mi WNW 23.0 mph - N/A   Haze
1:55 PM 3.2 °F -20.3 °F -0.4 °F 85% 30.14 in 1.2 mi West 26.5 mph 32.2 mph N/A   Scattered Clouds
2:15 PM 3.2 °F -20.7 °F -2.2 °F 78% 30.13 in 1.0 mi West 27.6 mph 32.2 mph N/A   Haze
2:35 PM 3.2 °F -19.9 °F -2.2 °F 78% 30.12 in 1.0 mi West 25.3 mph 33.4 mph N/A   Haze
2:55 PM 3.2 °F -21.5 °F -2.2 °F 78% 30.11 in 1.8 mi West 29.9 mph 35.7 mph N/A   Haze
3:15 PM 5.0 °F -17.9 °F -2.2 °F 72% 30.11 in 2.0 mi West 26.5 mph 32.2 mph N/A   Haze
3:35 PM 3.2 °F -21.1 °F -2.2 °F 78% 30.09 in 2.0 mi West 28.8 mph 34.5 mph N/A   Haze
3:55 PM 3.2 °F -20.7 °F -2.2 °F 78% 30.09 in 2.5 mi West 27.6 mph 33.4 mph N/A   Haze
4:15 PM 3.2 °F -19.0 °F -2.2 °F 78% 30.08 in 3.0 mi West 23.0 mph 32.2 mph N/A   Haze
4:35 PM 3.2 °F -19.5 °F -2.2 °F 78% 30.07 in 3.0 mi West 24.2 mph - N/A   Haze
4:55 PM 1.4 °F -22.7 °F -4.0 °F 78% 30.07 in 3.0 mi West 26.5 mph 34.5 mph N/A   Haze
5:15 PM 1.4 °F -21.9 °F -4.0 °F 78% 30.07 in 8.0 mi West 24.2 mph 28.8 mph N/A   Clear
5:35 PM 1.4 °F -20.5 °F -5.8 °F 72% 30.07 in 10.0 mi West 20.7 mph - N/A   Clear
5:55 PM -0.4 °F -23.3 °F -5.8 °F 78% 30.06 in 10.0 mi West 21.9 mph 31.1 mph N/A   Clear
6:15 PM -0.4 °F -20.5 °F -7.6 °F 72% 30.05 in 10.0 mi West 16.1 mph - N/A   Clear
6:35 PM -0.4 °F -21.2 °F -7.6 °F 72% 30.05 in 10.0 mi West 17.3 mph - N/A   Clear
6:55 PM -0.4 °F -19.9 °F -7.6 °F 72% 30.04 in 10.0 mi WSW 15.0 mph - N/A   Clear
7:15 PM -0.4 °F -20.5 °F -7.6 °F 72% 30.03 in 10.0 mi WSW 16.1 mph - N/A   Clear
7:35 PM -0.4 °F -21.7 °F -7.6 °F 72% 30.02 in 10.0 mi WSW 18.4 mph - N/A   Clear
7:55 PM -0.4 °F -20.5 °F -7.6 °F 72% 30.01 in 10.0 mi WSW 16.1 mph - N/A   Clear
8:15 PM -0.4 °F -21.2 °F -7.6 °F 72% 30.00 in 10.0 mi WSW 17.3 mph - N/A   Clear
8:35 PM -0.4 °F -19.9 °F -7.6 °F 72% 29.99 in 10.0 mi WSW 15.0 mph - N/A   Clear
8:55 PM -0.4 °F -21.7 °F -7.6 °F 72% 29.98 in 10.0 mi West 18.4 mph - N/A   Clear
9:15 PM -0.4 °F -22.3 °F -7.6 °F 72% 29.98 in 10.0 mi West 19.6 mph - N/A   Clear
9:35 PM -0.4 °F -22.3 °F -7.6 °F 72% 29.97 in 10.0 mi West 19.6 mph - N/A   Clear
9:55 PM -0.4 °F -21.2 °F -9.4 °F 66% 29.97 in 10.0 mi West 17.3 mph - N/A   Clear
10:15 PM -0.4 °F -21.7 °F -9.4 °F 66% 29.96 in 10.0 mi West 18.4 mph - N/A   Clear
10:35 PM -0.4 °F -20.5 °F -9.4 °F 66% 29.96 in 10.0 mi West 16.1 mph - N/A   Clear
10:55 PM -0.4 °F -21.7 °F -9.4 °F 66% 29.96 in 10.0 mi West 18.4 mph - N/A   Clear
11:15 PM -0.4 °F -21.2 °F -9.4 °F 66% 29.96 in 10.0 mi West 17.3 mph - N/A   Clear
11:35 PM -0.4 °F -20.5 °F -9.4 °F 66% 29.95 in 10.0 mi West 16.1 mph - N/A   Clear
11:55 PM -2.2 °F -23.5 °F -9.4 °F 71% 29.95 in 10.0 mi West 17.3 mph - N/A   Clear